Sheldon, IA

9:41 PM CDT on May 26, 2017 (GMT -0500)
Sheldon Municipal

Weather History for KSHL - January, 2013

Change the Weather History Date:

Friday, January 4, 2013

  Actual Average Record
Temperature  
Mean Temperature 16 °F -  
Max Temperature 24 °F 21 °F 50 °F (1964)
Min Temperature 8 °F 3 °F -24 °F (1959)
Degree Days  
Heating Degree Days 49    
Moisture  
Dew Point 12 °F    
Average Humidity 83    
Maximum Humidity 93    
Minimum Humidity 64    
Precipitation  
Precipitation 0.00 in - - ()
Sea Level Pressure  
Sea Level Pressure 30.11 in    
Wind  
Wind Speed 8 mph (SW)    
Max Wind Speed 14 mph    
Max Gust Speed 14 mph    
Visibility 10 miles    
Events      
Averages and records for this station are not official NWS values.
T = Trace of Precipitation, MM = Missing Value Source: NWS Daily Summary

Daily Weather History Graph

Daily Weather History Graph

Search for Another Location

Airport or City:

Trip Planner

Search our weather history database for the weather conditions in past years. The results will help you decide how hot, cold, wet, or windy it might be!

Date:

Astronomy

Jan. 04, 2013 Rise Set
Actual Time 7:55 AM CST 5:01 PM CST
Civil Twilight 7:23 AM CST 5:33 PM CST
Nautical Twilight 6:47 AM CST 6:09 PM CST
Astronomical Twilight 6:12 AM CST 6:44 PM CST
Moon No Moon Rise 11:25 AM CST (1/4)
Length of Visible Light 10h 10m
Length of Day
9h 06m
Waning Gibbous, 55% of the Moon is Illuminated
Jan 4
Waning Gibbous
Jan 4
Last Quarter
Jan 11
New
Jan 18
First Quarter
Jan 26
Full

Hourly Weather History & Observations

Time (CST) Temp. Windchill Dew Point Humidity Pressure Visibility Wind Dir Wind Speed Gust Speed Precip Events Conditions
12:15 AM 14.0 °F 2.0 °F 10.4 °F 86% 30.17 in 10.0 mi SW 9.2 mph - N/A   Clear
12:35 AM 14.0 °F 0.5 °F 12.2 °F 93% 30.16 in 10.0 mi SW 11.5 mph - N/A   Clear
12:55 AM 15.8 °F 2.1 °F 12.2 °F 86% 30.15 in 10.0 mi SW 12.7 mph - N/A   Clear
1:35 AM 15.8 °F 2.1 °F 12.2 °F 86% 30.14 in 10.0 mi SW 12.7 mph - N/A   Clear
1:55 AM 15.8 °F 2.7 °F 12.2 °F 86% 30.14 in 10.0 mi SW 11.5 mph - N/A   Clear
2:15 AM 14.0 °F 3.9 °F 12.2 °F 93% 30.15 in 10.0 mi SW 6.9 mph - N/A   Clear
2:35 AM 14.0 °F 2.0 °F 10.4 °F 86% 30.14 in 10.0 mi SW 9.2 mph - N/A   Clear
2:55 AM 14.0 °F 3.9 °F 12.2 °F 93% 30.15 in 10.0 mi SSW 6.9 mph - N/A   Clear
3:15 AM 14.0 °F 3.9 °F 12.2 °F 93% 30.14 in 10.0 mi SSW 6.9 mph - N/A   Clear
5:55 AM 14.0 °F -0.2 °F 12.2 °F 93% 30.11 in 10.0 mi SSW 12.7 mph - N/A   Clear
6:15 AM 14.0 °F -0.8 °F 12.2 °F 93% 30.11 in 10.0 mi SW 13.8 mph - N/A   Clear
6:35 AM 15.8 °F 2.1 °F 12.2 °F 86% 30.10 in 10.0 mi SSW 12.7 mph - N/A   Clear
7:15 AM 12.2 °F -0.2 °F 10.4 °F 92% 30.11 in 10.0 mi SW 9.2 mph - N/A   Clear
7:35 AM 14.0 °F 2.0 °F 10.4 °F 86% 30.11 in 10.0 mi SW 9.2 mph - N/A   Clear
7:55 AM 14.0 °F 1.2 °F 10.4 °F 86% 30.11 in 10.0 mi SW 10.4 mph - N/A   Clear
8:15 AM 14.0 °F 2.9 °F 10.4 °F 86% 30.11 in 10.0 mi SW 8.1 mph 13.8 mph N/A   Clear
8:35 AM 12.2 °F 0.7 °F 8.6 °F 85% 30.12 in 10.0 mi SW 8.1 mph - N/A   Clear
8:55 AM 12.2 °F 1.7 °F 8.6 °F 85% 30.12 in 10.0 mi SW 6.9 mph - N/A   Clear
9:15 AM 14.0 °F 0.5 °F 10.4 °F 86% 30.12 in 10.0 mi SW 11.5 mph - N/A   Clear
9:35 AM 15.8 °F 2.7 °F 10.4 °F 79% 30.12 in 10.0 mi SW 11.5 mph - N/A   Clear
9:55 AM 15.8 °F 2.7 °F 10.4 °F 79% 30.12 in 10.0 mi SW 11.5 mph - N/A   Clear
10:15 AM 17.6 °F 6.4 °F 10.4 °F 73% 30.13 in 10.0 mi SW 9.2 mph - N/A   Clear
10:35 AM 17.6 °F 6.4 °F 12.2 °F 79% 30.14 in 10.0 mi WSW 9.2 mph - N/A   Clear
10:55 AM 17.6 °F 7.3 °F 12.2 °F 79% 30.14 in 9.0 mi WSW 8.1 mph - N/A   Clear
11:15 AM 19.4 °F 10.4 °F 12.2 °F 74% 30.15 in 10.0 mi West 6.9 mph - N/A   Clear
11:35 AM 19.4 °F 10.4 °F 12.2 °F 74% 30.14 in 10.0 mi West 6.9 mph - N/A   Clear
11:55 AM 21.2 °F 13.6 °F 14.0 °F 74% 30.14 in 10.0 mi WSW 5.8 mph - N/A   Clear
12:15 PM 21.2 °F 13.6 °F 14.0 °F 74% 30.13 in 10.0 mi WSW 5.8 mph - N/A   Clear
12:35 PM 21.2 °F 12.6 °F 14.0 °F 74% 30.13 in 10.0 mi WSW 6.9 mph - N/A   Clear
12:55 PM 23.0 °F 14.7 °F 15.8 °F 74% 30.12 in 10.0 mi WSW 6.9 mph - N/A   Clear
1:15 PM 23.0 °F 15.8 °F 15.8 °F 74% 30.12 in 10.0 mi WSW 5.8 mph - N/A   Clear
1:35 PM 24.8 °F 16.9 °F 14.0 °F 64% 30.11 in 10.0 mi West 6.9 mph - N/A   Clear
1:55 PM 24.8 °F 17.9 °F 15.8 °F 69% 30.11 in 10.0 mi West 5.8 mph - N/A   Clear
2:15 PM 24.8 °F 19.1 °F 15.8 °F 69% 30.11 in 10.0 mi West 4.6 mph - N/A   Clear
2:35 PM 24.8 °F 19.1 °F 15.8 °F 69% 30.10 in 10.0 mi WSW 4.6 mph - N/A   Clear
2:55 PM 24.8 °F 16.9 °F 15.8 °F 69% 30.11 in 10.0 mi WSW 6.9 mph - N/A   Clear
3:15 PM 24.8 °F 16.1 °F 15.8 °F 69% 30.11 in 10.0 mi SW 8.1 mph - N/A   Clear
3:35 PM 24.8 °F 17.9 °F 15.8 °F 69% 30.11 in 10.0 mi WSW 5.8 mph - N/A   Clear
3:55 PM 24.8 °F 17.9 °F 15.8 °F 69% 30.11 in 10.0 mi SW 5.8 mph - N/A   Clear
4:15 PM 23.0 °F 14.7 °F 15.8 °F 74% 30.12 in 10.0 mi SW 6.9 mph - N/A   Clear
4:35 PM 23.0 °F 15.8 °F 15.8 °F 74% 30.11 in 10.0 mi SW 5.8 mph - N/A   Clear
4:55 PM 21.2 °F 14.9 °F 15.8 °F 80% 30.11 in 10.0 mi SSW 4.6 mph - N/A   Clear
5:15 PM 21.2 °F 13.6 °F 15.8 °F 80% 30.11 in 10.0 mi South 5.8 mph - N/A   Clear
5:35 PM 19.4 °F 12.8 °F 14.0 °F 80% 30.11 in 10.0 mi South 4.6 mph - N/A   Clear
5:55 PM 17.6 °F 12.3 °F 15.8 °F 93% 30.11 in 10.0 mi South 3.5 mph - N/A   Clear
6:15 PM 15.8 °F - 14.0 °F 93% 30.11 in 10.0 mi Calm Calm - N/A   Clear
6:35 PM 14.0 °F - 10.4 °F 86% 30.11 in 10.0 mi Calm Calm - N/A   Clear
6:55 PM 8.6 °F 0.1 °F 6.8 °F 92% 30.11 in 10.0 mi SSE 4.6 mph - N/A   Clear
7:15 PM 14.0 °F 6.5 °F 12.2 °F 93% 30.11 in 10.0 mi South 4.6 mph - N/A   Partly Cloudy
7:35 PM 12.2 °F 2.9 °F 10.4 °F 92% 30.11 in 10.0 mi South 5.8 mph - N/A   Clear
7:55 PM 15.8 °F 6.1 °F 12.2 °F 86% 30.11 in 10.0 mi South 6.9 mph - N/A   Clear
8:15 PM 14.0 °F - 10.4 °F 86% 30.09 in 10.0 mi Calm Calm - N/A   Clear
8:35 PM 8.6 °F 2.0 °F 6.8 °F 92% 30.09 in 10.0 mi SE 3.5 mph - N/A   Clear
8:55 PM 10.4 °F 0.8 °F 8.6 °F 92% 30.08 in 10.0 mi SSE 5.8 mph - N/A   Clear
9:15 PM 8.6 °F -2.6 °F 6.8 °F 92% 30.08 in 10.0 mi SSE 6.9 mph - N/A   Clear
9:35 PM 10.4 °F 0.8 °F 8.6 °F 92% 30.08 in 10.0 mi SSE 5.8 mph - N/A   Clear
9:55 PM 12.2 °F 0.7 °F 10.4 °F 92% 30.07 in 10.0 mi SSE 8.1 mph - N/A   Clear
10:15 PM 14.0 °F 3.9 °F 10.4 °F 86% 30.07 in 10.0 mi SSW 6.9 mph - N/A   Clear
10:35 PM 15.8 °F 6.1 °F 12.2 °F 86% 30.08 in 10.0 mi South 6.9 mph - N/A   Clear
10:55 PM 14.0 °F 6.5 °F 10.4 °F 86% 30.07 in 10.0 mi South 4.6 mph - N/A   Clear
11:15 PM 15.8 °F 7.2 °F 12.2 °F 86% 30.07 in 10.0 mi South 5.8 mph - N/A   Clear
11:35 PM 8.6 °F 0.1 °F 5.0 °F 85% 30.06 in 10.0 mi ESE 4.6 mph - N/A   Clear
11:55 PM 12.2 °F 1.7 °F 8.6 °F 85% 30.06 in 10.0 mi SSE 6.9 mph - N/A   Clear